TimeCST,TemperatureF,Dew PointF,Humidity,Sea Level PressureIn,VisibilityMPH,Wind Direction,Wind SpeedMPH,Gust SpeedMPH,PrecipitationIn,Events,Conditions,WindDirDegrees,DateUTC
12:15 AM,39.7,32.9,77,30.22,10.0,North,17.3,23.0,N/A,,Overcast,10,2012-12-10 06:15:00
12:35 AM,39.2,31.3,73,30.22,10.0,North,17.3,26.5,N/A,,Overcast,360,2012-12-10 06:35:00
12:55 AM,38.8,29.7,70,30.22,10.0,North,15.0,-,N/A,,Overcast,360,2012-12-10 06:55:00
1:15 AM,37.0,21.9,54,30.22,10.0,NNW,21.9,28.8,N/A,,Overcast,340,2012-12-10 07:15:00
1:35 AM,34.3,17.2,50,30.23,7.0,NNW,24.2,31.1,N/A,,Overcast,340,2012-12-10 07:35:00
1:55 AM,30.2,19.8,65,30.24,7.0,NNW,23.0,29.9,N/A,,Overcast,340,2012-12-10 07:55:00
2:15 AM,29.1,17.4,62,30.24,10.0,North,15.0,21.9,N/A,,Overcast,350,2012-12-10 08:15:00
2:55 AM,27.7,15.8,61,30.24,10.0,North,13.8,18.4,N/A,,Mostly Cloudy,350,2012-12-10 08:55:00
3:15 AM,27.0,15.3,61,30.23,10.0,North,10.4,-,N/A,,Scattered Clouds,350,2012-12-10 09:15:00
3:35 AM,26.6,15.1,62,30.23,10.0,North,9.2,-,N/A,,Clear,350,2012-12-10 09:35:00
3:55 AM,26.1,15.3,64,30.23,10.0,North,6.9,-,N/A,,Clear,350,2012-12-10 09:55:00
4:15 AM,25.5,14.9,64,30.22,10.0,North,5.8,-,N/A,,Clear,350,2012-12-10 10:15:00
4:35 AM,24.8,14.9,66,30.22,10.0,North,4.6,-,N/A,,Clear,10,2012-12-10 10:35:00
4:55 AM,25.5,15.6,66,30.21,10.0,NNE,5.8,-,N/A,,Clear,20,2012-12-10 10:55:00
5:15 AM,25.0,15.3,67,30.20,10.0,NNE,4.6,-,N/A,,Clear,30,2012-12-10 11:15:00
5:35 AM,24.3,14.9,68,30.20,10.0,NE,3.5,-,N/A,,Clear,50,2012-12-10 11:35:00
5:55 AM,23.7,14.7,69,30.20,10.0,Calm,Calm,-,N/A,,Clear,0,2012-12-10 11:55:00
6:15 AM,23.5,14.7,69,30.21,10.0,NE,3.5,-,N/A,,Clear,50,2012-12-10 12:15:00
6:35 AM,23.5,14.4,68,30.21,10.0,Calm,Calm,-,N/A,,Clear,0,2012-12-10 12:35:00
6:55 AM,23.4,14.0,67,30.21,7.0,Calm,Calm,-,N/A,,Clear,0,2012-12-10 12:55:00
7:15 AM,22.5,13.8,69,30.21,10.0,Calm,Calm,-,N/A,,Scattered Clouds,0,2012-12-10 13:15:00
7:35 AM,22.6,13.8,69,30.21,10.0,Calm,Calm,-,N/A,,Scattered Clouds,0,2012-12-10 13:35:00
7:55 AM,22.8,13.5,67,30.20,10.0,Calm,Calm,-,N/A,,Clear,0,2012-12-10 13:55:00
8:15 AM,22.3,13.5,69,30.20,10.0,Calm,Calm,-,N/A,,Clear,0,2012-12-10 14:15:00
8:35 AM,23.5,14.4,68,30.21,10.0,Calm,Calm,-,N/A,,Clear,0,2012-12-10 14:35:00
8:55 AM,26.6,15.4,63,30.22,10.0,NE,6.9,-,N/A,,Clear,40,2012-12-10 14:55:00
9:15 AM,26.8,17.6,68,30.22,10.0,NE,5.8,-,N/A,,Clear,50,2012-12-10 15:15:00
9:35 AM,27.3,17.6,67,30.22,10.0,NE,5.8,-,N/A,,Clear,50,2012-12-10 15:35:00
9:55 AM,28.0,18.5,67,30.22,10.0,ENE,6.9,-,N/A,,Clear,60,2012-12-10 15:55:00
10:15 AM,28.8,18.0,64,30.22,10.0,NE,3.5,-,N/A,,Clear,40,2012-12-10 16:15:00
10:35 AM,29.7,17.4,60,30.22,10.0,ENE,5.8,-,N/A,,Clear,70,2012-12-10 16:35:00
10:55 AM,31.1,17.8,58,30.22,10.0,NNE,3.5,-,N/A,,Clear,30,2012-12-10 16:55:00
11:15 AM,32.4,18.1,56,30.21,10.0,Calm,Calm,-,N/A,,Clear,0,2012-12-10 17:15:00
11:35 AM,34.0,18.1,52,30.19,10.0,East,4.6,-,N/A,,Clear,80,2012-12-10 17:35:00
12:15 PM,37.4,18.3,46,30.17,10.0,NNE,3.5,-,N/A,,Clear,20,2012-12-10 18:15:00
12:35 PM,38.3,18.1,44,30.15,10.0,NE,4.6,-,N/A,,Clear,50,2012-12-10 18:35:00
12:55 PM,40.1,18.5,42,30.13,10.0,Calm,Calm,-,N/A,,Clear,0,2012-12-10 18:55:00
1:15 PM,42.4,18.5,38,30.10,10.0,East,4.6,-,N/A,,Clear,80,2012-12-10 19:15:00
1:35 PM,45.1,18.7,35,30.08,10.0,North,3.5,-,N/A,,Clear,10,2012-12-10 19:35:00
1:55 PM,46.8,18.5,32,30.07,10.0,North,5.8,-,N/A,,Clear,10,2012-12-10 19:55:00
2:15 PM,48.6,18.3,30,30.06,10.0,Calm,Calm,-,N/A,,Clear,0,2012-12-10 20:15:00
2:35 PM,49.5,18.3,29,30.06,10.0,North,4.6,-,N/A,,Clear,360,2012-12-10 20:35:00
2:55 PM,50.0,18.3,29,30.05,10.0,North,3.5,-,N/A,,Clear,10,2012-12-10 20:55:00
3:15 PM,50.5,18.7,28,30.05,10.0,NNE,4.6,-,N/A,,Clear,20,2012-12-10 21:15:00
3:35 PM,49.6,18.9,30,30.04,10.0,NE,10.4,-,N/A,,Clear,50,2012-12-10 21:35:00
3:55 PM,48.7,18.7,30,30.04,10.0,NE,10.4,-,N/A,,Clear,50,2012-12-10 21:55:00
4:15 PM,48.4,18.9,31,30.04,10.0,NE,10.4,-,N/A,,Clear,40,2012-12-10 22:15:00
4:35 PM,47.8,18.9,32,30.04,10.0,NE,8.1,-,N/A,,Clear,40,2012-12-10 22:35:00
4:55 PM,47.3,18.9,32,30.04,10.0,NE,8.1,-,N/A,,Clear,50,2012-12-10 22:55:00
5:15 PM,46.8,18.7,33,30.04,10.0,NE,5.8,-,N/A,,Clear,40,2012-12-10 23:15:00
5:35 PM,44.4,18.5,35,30.05,10.0,North,3.5,-,N/A,,Clear,10,2012-12-10 23:35:00
5:55 PM,41.9,18.3,39,30.05,10.0,North,3.5,-,N/A,,Clear,360,2012-12-10 23:55:00
6:15 PM,39.6,17.8,41,30.06,10.0,Calm,Calm,-,N/A,,Clear,0,2012-12-11 00:15:00
6:35 PM,36.5,16.7,45,30.06,10.0,WNW,3.5,-,N/A,,Clear,290,2012-12-11 00:35:00
6:55 PM,36.3,16.9,45,30.07,10.0,Calm,Calm,-,N/A,,Clear,0,2012-12-11 00:55:00
7:15 PM,36.1,16.9,46,30.07,10.0,WNW,3.5,-,N/A,,Clear,300,2012-12-11 01:15:00
7:35 PM,34.5,16.5,48,30.08,10.0,Calm,Calm,-,N/A,,Clear,0,2012-12-11 01:35:00
7:55 PM,34.2,16.9,49,30.07,10.0,North,4.6,-,N/A,,Clear,350,2012-12-11 01:55:00
8:15 PM,33.8,16.7,50,30.07,10.0,Calm,Calm,-,N/A,,Clear,0,2012-12-11 02:15:00
8:55 PM,29.7,15.1,55,30.07,10.0,Calm,Calm,-,N/A,,Clear,0,2012-12-11 02:55:00
9:15 PM,31.3,15.8,53,30.07,10.0,Calm,Calm,-,N/A,,Clear,0,2012-12-11 03:15:00
9:35 PM,31.6,15.6,52,30.07,10.0,SSW,9.2,-,N/A,,Clear,210,2012-12-11 03:35:00
9:55 PM,37.9,11.7,34,30.07,10.0,SW,12.7,-,N/A,,Clear,220,2012-12-11 03:55:00
10:15 PM,39.4,10.6,31,30.07,10.0,SSW,10.4,-,N/A,,Clear,210,2012-12-11 04:15:00
10:35 PM,38.7,10.2,31,30.07,10.0,SSW,10.4,-,N/A,,Clear,210,2012-12-11 04:35:00
10:55 PM,40.6,10.0,29,30.07,10.0,SSW,8.1,-,N/A,,Clear,210,2012-12-11 04:55:00
11:15 PM,41.0,9.7,28,30.07,10.0,SSE,6.9,-,N/A,,Clear,160,2012-12-11 05:15:00
11:35 PM,39.4,9.7,29,30.07,10.0,South,8.1,-,N/A,,Clear,190,2012-12-11 05:35:00
11:55 PM,40.6,9.5,28,30.06,10.0,South,5.8,-,N/A,,Clear,190,2012-12-11 05:55:00